Weather History for Owosso, MI

Change the Weather History Date:

Saturday, July 13, 2013

  Actual Average (KFNT) Record (KFNT)
Temperature  
Mean Temperature 70 °F 71 °F  
Max Temperature 82 °F 82 °F 108 °F (1936)
Min Temperature 58 °F 59 °F 45 °F (2009)
Degree Days  
Heating Degree Days 0 0  
Month to date heating degree days 10  
Since 1 June heating degree days 76  
Since 1 July heating degree days 10  
Cooling Degree Days 5 6  
Month to date cooling degree days 78  
Year to date cooling degree days 222  
Since 1 June cooling degree days 190  
Growing Degree Days 20 (Base 50)    
Moisture  
Dew Point 60 °F    
Average Humidity 71    
Maximum Humidity 100    
Minimum Humidity 35    
Precipitation  
Precipitation 0.00 in 0.11 in 2.50 in (1945)
Month to date precipitation 1.27  
Year to date precipitation 15.33  
Snow  
Snow 0.00 in 0.00 in 0.00 in ()
Month to date snowfall 0.0  
Since 1 June snowfall 0.0  
Since 1 July snowfall 0.0  
Snow Depth -    
Sea Level Pressure  
Sea Level Pressure 30.20 in    
Wind  
Wind Speed 2 mph (East)    
Max Wind Speed 12 mph    
Max Gust Speed 16 mph    
Visibility 10 miles    
Events      
T = Trace of Precipitation, MM = Missing Value Source: NWS Daily Summary

Daily Weather History Graph

Daily Weather History Graph

Search for Another Location

Airport:

Trip Planner

Search our weather history database for the weather conditions in past years. The results will help you decide how hot, cold, wet, or windy it might be!

Date:

Astronomy

Jul. 13, 2013 Rise Set
Actual Time 6:09 AM EDT 9:14 PM EDT
Civil Twilight 5:35 AM EDT 9:48 PM EDT
Nautical Twilight 4:51 AM EDT 10:32 PM EDT
Astronomical Twilight 3:58 AM EDT 11:24 PM EDT
Moon 11:34 AM EDT (7/13) 11:44 PM EDT (7/13)
Length of Visible Light 16h 13m
Length of Day
15h 05m
Waxing Crescent, 25% of the Moon is Illuminated
Jul 13
Waxing Crescent
Jul 15
First Quarter
Jul 22
Full
Jul 29
Last Quarter
Aug 6
New

Hourly Weather History & Observations

Time (EDT) Temp. Heat Index Dew Point Humidity Pressure Visibility Wind Dir Wind Speed Gust Speed Precip Events Conditions
12:15 AM 65.5 °F - 63.7 °F 94% 30.16 in 10.0 mi Calm Calm - N/A   Clear
12:35 AM 64.6 °F - 63.5 °F 96% 30.17 in 10.0 mi Calm Calm - N/A   Clear
12:54 AM 64.4 °F - 63.7 °F 98% 30.16 in 10.0 mi Calm Calm - N/A   Clear
1:15 AM 63.9 °F - 63.3 °F 98% 30.17 in 10.0 mi Calm Calm - N/A   Clear
1:35 AM 63.3 °F - 63.3 °F 100% 30.16 in 10.0 mi Calm Calm - N/A   Clear
1:54 AM 62.8 °F - 62.8 °F 100% 30.16 in 10.0 mi Calm Calm - N/A   Clear
2:15 AM 63.3 °F - 62.8 °F 98% 30.17 in 10.0 mi East 3.5 mph - N/A   Clear
2:35 AM 63.1 °F - 61.9 °F 96% 30.17 in 10.0 mi East 4.6 mph - N/A   Clear
2:55 AM 62.8 °F - 61.3 °F 95% 30.17 in 10.0 mi Calm Calm - N/A   Clear
3:15 AM 62.8 °F - 61.2 °F 94% 30.17 in 10.0 mi Calm Calm - N/A   Clear
3:35 AM 61.0 °F - 60.3 °F 97% 30.17 in 10.0 mi Calm Calm - N/A   Clear
3:55 AM 60.4 °F - 60.1 °F 99% 30.17 in 10.0 mi Calm Calm - N/A   Clear
4:15 AM 59.9 °F - 59.9 °F 100% 30.18 in 10.0 mi Calm Calm - N/A   Clear
4:35 AM 59.9 °F - 59.9 °F 100% 30.18 in 7.0 mi Calm Calm - N/A   Clear
4:55 AM 59.7 °F - 59.7 °F 100% 30.19 in 7.0 mi Calm Calm - N/A   Clear
5:15 AM 58.3 °F - 58.3 °F 100% 30.19 in 7.0 mi Calm Calm - N/A   Clear
5:34 AM 58.3 °F - 58.3 °F 100% 30.20 in 7.0 mi Calm Calm - N/A   Clear
5:55 AM 58.5 °F - 58.5 °F 100% 30.20 in 4.0 mi Calm Calm - N/A   Clear
6:15 AM 59.0 °F - 59.0 °F 100% 30.20 in 2.5 mi Calm Calm - N/A   Clear
6:34 AM 59.4 °F - 59.4 °F 100% 30.20 in 4.0 mi Calm Calm - N/A   Clear
6:55 AM 59.7 °F - 59.7 °F 100% 30.21 in 7.0 mi Calm Calm - N/A   Clear
7:15 AM 61.0 °F - 61.0 °F 100% 30.21 in 10.0 mi Calm Calm - N/A   Clear
7:35 AM 62.8 °F - 62.8 °F 100% 30.21 in 10.0 mi Calm Calm - N/A   Clear
7:55 AM 65.3 °F - 64.4 °F 97% 30.20 in 10.0 mi East 3.5 mph - N/A   Clear
8:15 AM 67.5 °F - 64.6 °F 90% 30.21 in 10.0 mi East 5.8 mph - N/A   Clear
8:35 AM 69.1 °F - 65.7 °F 89% 30.21 in 10.0 mi ESE 4.6 mph - N/A   Clear
8:55 AM 70.0 °F - 66.0 °F 87% 30.21 in 10.0 mi East 4.6 mph - N/A   Clear
9:15 AM 71.6 °F - 66.0 °F 82% 30.22 in 10.0 mi East 4.6 mph - N/A   Clear
9:35 AM 72.9 °F - 65.5 °F 78% 30.22 in 10.0 mi Calm Calm - N/A   Clear
9:55 AM 75.0 °F - 62.6 °F 65% 30.22 in 10.0 mi ESE 4.6 mph - N/A   Clear
10:14 AM 76.1 °F - 63.0 °F 64% 30.21 in 10.0 mi East 9.2 mph - N/A   Clear
10:35 AM 76.8 °F - 59.5 °F 55% 30.21 in 10.0 mi ESE 11.5 mph - N/A   Clear
10:55 AM 77.2 °F - 62.1 °F 59% 30.21 in 10.0 mi ESE 6.9 mph - N/A   Clear
11:14 AM 77.9 °F - 58.6 °F 51% 30.22 in 10.0 mi East 6.9 mph - N/A   Clear
11:35 AM 78.4 °F - 59.2 °F 51% 30.22 in 10.0 mi ESE 5.8 mph - N/A   Clear
11:55 AM 79.0 °F - 59.5 °F 51% 30.22 in 10.0 mi ESE 8.1 mph - N/A   Clear
12:15 PM 79.2 °F - 59.0 °F 50% 30.22 in 10.0 mi Calm Calm - N/A   Clear
12:35 PM 79.7 °F - 59.5 °F 50% 30.21 in 10.0 mi East 9.2 mph - N/A   Clear
12:55 PM 80.2 °F 80.5 °F 57.4 °F 45% 30.21 in 10.0 mi East 5.8 mph - N/A   Clear
1:15 PM 80.6 °F 81.0 °F 58.6 °F 47% 30.21 in 10.0 mi East 4.6 mph - N/A   Clear
1:35 PM 80.6 °F 80.8 °F 57.4 °F 45% 30.21 in 10.0 mi East 3.5 mph - N/A   Clear
1:54 PM 80.8 °F 80.8 °F 56.5 °F 43% 30.21 in 10.0 mi ESE 6.9 mph - N/A   Clear
2:15 PM 81.7 °F 81.6 °F 58.1 °F 44% 30.21 in 10.0 mi ENE 8.1 mph - N/A   Clear
2:35 PM 81.5 °F 81.4 °F 56.8 °F 43% 30.21 in 10.0 mi NE 5.8 mph - N/A   Clear
2:55 PM 81.7 °F 81.5 °F 57.2 °F 43% 30.21 in 10.0 mi ESE 5.8 mph - N/A   Clear
3:15 PM 81.9 °F 81.4 °F 55.9 °F 41% 30.20 in 10.0 mi Calm Calm - N/A   Clear
3:34 PM 82.2 °F 81.6 °F 55.9 °F 40% 30.20 in 10.0 mi Calm Calm - N/A   Clear
3:55 PM 82.6 °F 81.6 °F 53.6 °F 37% 30.20 in 10.0 mi East 5.8 mph - N/A   Clear
4:15 PM 82.6 °F 81.7 °F 54.9 °F 38% 30.19 in 10.0 mi East 9.2 mph 16.1 mph N/A   Clear
4:34 PM 82.9 °F 82.0 °F 55.0 °F 38% 30.19 in 10.0 mi East 5.8 mph - N/A   Clear
4:55 PM 82.6 °F 81.7 °F 54.3 °F 38% 30.18 in 10.0 mi East 4.6 mph - N/A   Clear
5:15 PM 82.6 °F - 52.3 °F 35% 30.18 in 10.0 mi Calm Calm - N/A   Clear
5:34 PM 82.4 °F 82.0 °F 57.2 °F 42% 30.18 in 10.0 mi East 6.9 mph - N/A   Clear
5:55 PM 82.6 °F 81.8 °F 55.6 °F 39% 30.18 in 10.0 mi East 5.8 mph - N/A   Clear
6:15 PM 82.2 °F 81.8 °F 56.5 °F 41% 30.18 in 10.0 mi SSE 4.6 mph - N/A   Clear
6:35 PM 82.4 °F 81.6 °F 54.7 °F 38% 30.18 in 10.0 mi Calm Calm - N/A   Clear
6:55 PM 81.7 °F 81.6 °F 58.1 °F 44% 30.18 in 10.0 mi ENE 4.6 mph - N/A   Clear
7:15 PM 81.9 °F 81.8 °F 58.1 °F 44% 30.18 in 10.0 mi East 3.5 mph - N/A   Clear
7:35 PM 81.5 °F 81.6 °F 58.1 °F 45% 30.18 in 10.0 mi East 3.5 mph - N/A   Clear
7:55 PM 80.1 °F 81.0 °F 60.3 °F 51% 30.18 in 10.0 mi East 4.6 mph - N/A   Clear
8:14 PM 79.2 °F - 60.8 °F 53% 30.19 in 10.0 mi East 4.6 mph - N/A   Clear
8:35 PM 77.9 °F - 61.7 °F 57% 30.18 in 10.0 mi ESE 4.6 mph - N/A   Clear
8:55 PM 76.1 °F - 63.1 °F 64% 30.18 in 10.0 mi ESE 3.5 mph - N/A   Clear
9:14 PM 75.2 °F - 62.1 °F 64% 30.18 in 10.0 mi Calm Calm - N/A   Clear
9:35 PM 71.2 °F - 63.7 °F 77% 30.20 in 10.0 mi Calm Calm - N/A   Clear
9:55 PM 70.2 °F - 63.9 °F 80% 30.21 in 10.0 mi Calm Calm - N/A   Clear
10:14 PM 68.4 °F - 63.9 °F 85% 30.21 in 10.0 mi Calm Calm - N/A   Clear
10:35 PM 68.0 °F - 64.0 °F 87% 30.22 in 10.0 mi Calm Calm - N/A   Clear
10:55 PM 69.8 °F - 64.0 °F 82% 30.22 in 10.0 mi ESE 3.5 mph - N/A   Clear
11:15 PM 69.4 °F - 64.2 °F 83% 30.22 in 10.0 mi SE 4.6 mph - N/A   Clear
11:35 PM 70.0 °F - 63.7 °F 80% 30.22 in 10.0 mi East 3.5 mph - N/A   Clear
11:55 PM 70.0 °F - 63.7 °F 80% 30.22 in 10.0 mi Calm Calm - N/A   Clear